ANA282 RJOS-RJTT

Flight info

Callsign ANA282
Flight time 0h 51m
Altitude 33000
Route HONMA KMANO KILAP Y43 MENUR Y21 AKSEL
Aircraft A321/M-SDE3FGHIRWY/LB1

Departure

Time 2026-05-09 03:39
Airport Tokushima Awaodori Airport / JMSDF Tokushima Air Base (RJOS)

Arrival

Time 2026-05-09 04:30
Airport Tokyo Haneda International Airport (RJTT)
Time Latitude Longitude Altitude Speed Heading
2026-05-09 03:06 34.13385 134.61709 23 ft 0 kts 13°
2026-05-09 03:30 34.13380 134.61707 22 ft 4 kts 13°
2026-05-09 03:30 34.13353 134.61700 22 ft 4 kts 13°
2026-05-09 03:30 34.13327 134.61692 22 ft 4 kts 14°
2026-05-09 03:31 34.13301 134.61684 23 ft 4 kts 18°
2026-05-09 03:31 34.13276 134.61672 22 ft 4 kts 36°
2026-05-09 03:31 34.13262 134.61654 22 ft 3 kts 95°
2026-05-09 03:31 34.13262 134.61650 22 ft 0 kts 102°
2026-05-09 03:35 34.13262 134.61651 22 ft 1 kts 102°
2026-05-09 03:36 34.13249 134.61722 22 ft 18 kts 103°
2026-05-09 03:36 34.13216 134.61897 22 ft 22 kts 102°
2026-05-09 03:36 34.13183 134.62071 22 ft 21 kts 102°
2026-05-09 03:36 34.13153 134.62228 22 ft 15 kts 112°
2026-05-09 03:37 34.13098 134.62265 24 ft 5 kts 197°
2026-05-09 03:37 34.13071 134.62257 23 ft 3 kts 191°
2026-05-09 03:37 34.13054 134.62253 23 ft 2 kts 191°
2026-05-09 03:37 34.13048 134.62252 23 ft 1 kts 191°
2026-05-09 03:38 34.13006 134.62242 23 ft 5 kts 192°
2026-05-09 03:38 34.13003 134.62151 22 ft 27 kts 287°
2026-05-09 03:38 34.13101 134.61623 23 ft 99 kts 282°
2026-05-09 03:38 34.13293 134.60584 27 ft 152 kts 284°
2026-05-09 03:39 34.13526 134.59321 591 ft 152 kts 283°
2026-05-09 03:39 34.13348 134.58063 1178 ft 162 kts 233°
2026-05-09 03:39 34.12354 134.57533 1802 ft 164 kts 169°
2026-05-09 03:39 34.11306 134.58159 2249 ft 180 kts 146°
2026-05-09 03:40 34.10291 134.59177 2520 ft 200 kts 136°
2026-05-09 03:40 34.09312 134.60452 2848 ft 216 kts 129°
2026-05-09 03:40 34.08384 134.61982 3012 ft 237 kts 123°
2026-05-09 03:40 34.07416 134.63749 2998 ft 266 kts 121°
2026-05-09 03:41 34.06396 134.65662 3011 ft 273 kts 121°
2026-05-09 03:41 34.05365 134.67593 3012 ft 274 kts 121°
2026-05-09 03:41 34.04322 134.69524 3008 ft 275 kts 122°
2026-05-09 03:41 34.03278 134.71448 3008 ft 274 kts 122°
2026-05-09 03:42 34.02062 134.73216 3008 ft 275 kts 136°
2026-05-09 03:42 34.00661 134.74796 3009 ft 277 kts 136°
2026-05-09 03:42 33.99255 134.76379 3016 ft 277 kts 136°
2026-05-09 03:42 33.97847 134.77964 3034 ft 278 kts 136°
2026-05-09 03:43 33.96421 134.79570 3771 ft 281 kts 135°
2026-05-09 03:43 33.94993 134.81182 4625 ft 283 kts 135°
2026-05-09 03:43 33.93546 134.82815 5414 ft 287 kts 135°
2026-05-09 03:43 33.92073 134.84474 6182 ft 292 kts 135°
2026-05-09 03:44 33.90577 134.86159 6922 ft 297 kts 135°
2026-05-09 03:44 33.89061 134.87868 7648 ft 302 kts 135°
2026-05-09 03:44 33.87508 134.89616 8350 ft 308 kts 135°
2026-05-09 03:44 33.85932 134.91389 9027 ft 313 kts 136°
2026-05-09 03:45 33.84325 134.93195 9717 ft 319 kts 135°
2026-05-09 03:45 33.82919 134.95270 10402 ft 322 kts 120°
2026-05-09 03:45 33.82001 134.97725 11059 ft 324 kts 105°
2026-05-09 03:45 33.81382 135.00420 11262 ft 346 kts 103°
2026-05-09 03:46 33.80738 135.03322 11395 ft 369 kts 104°
2026-05-09 03:46 33.80055 135.06391 11557 ft 390 kts 104°
2026-05-09 03:46 33.79342 135.09575 12045 ft 398 kts 104°
2026-05-09 03:46 33.78694 135.12836 12582 ft 404 kts 98°
2026-05-09 03:47 33.78369 135.16212 13142 ft 410 kts 95°
2026-05-09 03:47 33.78072 135.19644 13701 ft 416 kts 95°
2026-05-09 03:47 33.77772 135.23117 14269 ft 421 kts 96°
2026-05-09 03:47 33.77467 135.26640 14804 ft 426 kts 96°
2026-05-09 03:48 33.77152 135.30203 15316 ft 432 kts 96°
2026-05-09 03:48 33.76828 135.33824 15815 ft 438 kts 96°
2026-05-09 03:48 33.76502 135.37477 16324 ft 442 kts 96°
2026-05-09 03:48 33.76176 135.41176 16766 ft 448 kts 97°
2026-05-09 03:49 33.75844 135.44920 17238 ft 453 kts 97°
2026-05-09 03:49 33.75506 135.48710 17680 ft 459 kts 97°
2026-05-09 03:49 33.75161 135.52546 18142 ft 463 kts 97°
2026-05-09 03:49 33.74812 135.56414 18581 ft 468 kts 98°
2026-05-09 03:50 33.74457 135.60322 19010 ft 473 kts 98°
2026-05-09 03:50 33.74099 135.64262 19471 ft 476 kts 98°
2026-05-09 03:50 33.73736 135.68221 19894 ft 480 kts 97°
2026-05-09 03:50 33.73369 135.72223 20298 ft 484 kts 99°
2026-05-09 03:51 33.73000 135.76250 20643 ft 488 kts 98°
2026-05-09 03:51 33.72624 135.80324 21042 ft 492 kts 98°
2026-05-09 03:51 33.72246 135.84419 21457 ft 495 kts 99°
2026-05-09 03:51 33.71867 135.88543 21893 ft 499 kts 99°
2026-05-09 03:52 33.71481 135.92712 22245 ft 503 kts 99°
2026-05-09 03:52 33.71099 135.96841 22671 ft 506 kts 99°
2026-05-09 03:52 33.70708 136.01059 23033 ft 510 kts 100°
2026-05-09 03:52 33.70310 136.05303 23420 ft 512 kts 100°
2026-05-09 03:53 33.69908 136.09565 23796 ft 515 kts 100°
2026-05-09 03:53 33.69504 136.13852 24150 ft 518 kts 101°
2026-05-09 03:53 33.69095 136.18172 24496 ft 522 kts 101°
2026-05-09 03:53 33.68680 136.22502 24812 ft 525 kts 101°
2026-05-09 03:54 33.68259 136.26872 25140 ft 528 kts 101°
2026-05-09 03:54 33.67834 136.31268 25454 ft 531 kts 101°
2026-05-09 03:54 33.67405 136.35682 25757 ft 534 kts 101°
2026-05-09 03:54 33.66967 136.40121 26049 ft 537 kts 102°
2026-05-09 03:55 33.66530 136.44576 26341 ft 540 kts 101°
2026-05-09 03:55 33.66238 136.47605 26531 ft 542 kts 101°
2026-05-09 03:55 33.65807 136.52112 26819 ft 546 kts 101°
2026-05-09 03:55 33.65367 136.56653 27148 ft 549 kts 102°
2026-05-09 03:56 33.64914 136.61206 27412 ft 550 kts 102°
2026-05-09 03:56 33.64456 136.65768 27657 ft 553 kts 102°
2026-05-09 03:56 33.64004 136.70362 27913 ft 556 kts 101°
2026-05-09 03:56 33.63862 136.75029 28181 ft 564 kts 92°
2026-05-09 03:57 33.64223 136.79747 28449 ft 571 kts 83°
2026-05-09 03:57 33.65038 136.84423 28686 ft 574 kts 78°
2026-05-09 03:57 33.65932 136.89104 28911 ft 577 kts 79°
2026-05-09 03:57 33.66822 136.93813 29233 ft 577 kts 79°
2026-05-09 03:58 33.67698 136.98514 29543 ft 577 kts 79°
2026-05-09 03:58 33.68569 137.03222 29838 ft 578 kts 79°
2026-05-09 03:58 33.69440 137.07931 30129 ft 579 kts 79°
2026-05-09 03:58 33.70318 137.12659 30437 ft 580 kts 79°
2026-05-09 03:59 33.71183 137.17318 30751 ft 579 kts 79°
2026-05-09 03:59 33.72058 137.22047 31038 ft 580 kts 79°
2026-05-09 03:59 33.72929 137.26767 31342 ft 579 kts 80°
2026-05-09 03:59 33.73801 137.31500 31652 ft 579 kts 80°
2026-05-09 04:00 33.74671 137.36223 31945 ft 579 kts 80°
2026-05-09 04:00 33.75542 137.40948 32233 ft 579 kts 80°
2026-05-09 04:00 33.76411 137.45673 32525 ft 579 kts 80°
2026-05-09 04:00 33.77276 137.50404 32812 ft 579 kts 81°
2026-05-09 04:01 33.78142 137.55153 32983 ft 580 kts 81°
2026-05-09 04:01 33.78996 137.59860 33012 ft 576 kts 81°
2026-05-09 04:01 33.80695 137.69241 33009 ft 573 kts 81°
2026-05-09 04:02 33.82388 137.78608 33008 ft 574 kts 81°
2026-05-09 04:02 33.84077 137.87989 32997 ft 574 kts 81°
2026-05-09 04:03 33.85753 137.97390 33000 ft 574 kts 81°
2026-05-09 04:03 33.87415 138.06804 32994 ft 575 kts 81°
2026-05-09 04:04 33.89073 138.16160 32997 ft 575 kts 81°
2026-05-09 04:04 33.90848 138.25541 32987 ft 577 kts 75°
2026-05-09 04:05 33.94038 138.34397 32976 ft 577 kts 60°
2026-05-09 04:05 33.97841 138.42908 32969 ft 577 kts 61°
2026-05-09 04:06 34.01625 138.51433 32966 ft 577 kts 61°
2026-05-09 04:06 34.05406 138.59975 32944 ft 577 kts 61°
2026-05-09 04:07 34.09182 138.68524 32938 ft 578 kts 61°
2026-05-09 04:07 34.12957 138.77105 32931 ft 579 kts 61°
2026-05-09 04:08 34.16726 138.85665 32921 ft 582 kts 61°
2026-05-09 04:08 34.20527 138.94318 32922 ft 584 kts 61°
2026-05-09 04:09 34.24331 139.03015 32926 ft 585 kts 61°
2026-05-09 04:09 34.28117 139.11719 32927 ft 584 kts 63°
2026-05-09 04:10 34.29781 139.16178 32065 ft 581 kts 67°
2026-05-09 04:10 34.31369 139.20703 30079 ft 590 kts 68°
2026-05-09 04:10 34.32952 139.25319 28032 ft 597 kts 67°
2026-05-09 04:10 34.34524 139.29966 26458 ft 593 kts 68°
2026-05-09 04:11 34.36064 139.34524 25197 ft 578 kts 68°
2026-05-09 04:11 34.37576 139.38977 23916 ft 565 kts 68°
2026-05-09 04:11 34.39062 139.43322 22453 ft 555 kts 68°
2026-05-09 04:11 34.40536 139.47608 20990 ft 545 kts 67°
2026-05-09 04:12 34.41977 139.51787 19914 ft 528 kts 67°
2026-05-09 04:12 34.43338 139.55747 19628 ft 492 kts 67°
2026-05-09 04:12 34.44618 139.59480 19130 ft 467 kts 67°
2026-05-09 04:12 34.45817 139.63005 18933 ft 438 kts 67°
2026-05-09 04:13 34.47028 139.66265 18844 ft 415 kts 60°
2026-05-09 04:13 34.48515 139.69179 18746 ft 400 kts 50°
2026-05-09 04:13 34.50240 139.71728 18656 ft 383 kts 41°
2026-05-09 04:13 34.52135 139.73901 18572 ft 366 kts 32°
2026-05-09 04:14 34.54147 139.75702 18489 ft 355 kts 24°
2026-05-09 04:14 34.56243 139.77239 18411 ft 351 kts 21°
2026-05-09 04:14 34.58333 139.78763 18333 ft 351 kts 22°
2026-05-09 04:14 34.60418 139.80298 18252 ft 350 kts 22°
2026-05-09 04:15 34.62497 139.81838 18174 ft 349 kts 22°
2026-05-09 04:15 34.64569 139.83371 18076 ft 350 kts 22°
2026-05-09 04:15 34.66677 139.84808 17684 ft 343 kts 14°
2026-05-09 04:15 34.68894 139.85768 17234 ft 333 kts
2026-05-09 04:16 34.71135 139.86221 16814 ft 324 kts 354°
2026-05-09 04:16 34.73382 139.86517 16383 ft 325 kts 355°
2026-05-09 04:16 34.75634 139.86828 15951 ft 327 kts 355°
2026-05-09 04:16 34.77898 139.87149 15516 ft 328 kts 356°
2026-05-09 04:17 34.80168 139.87473 15079 ft 329 kts 356°
2026-05-09 04:17 34.82443 139.87797 14647 ft 330 kts 356°
2026-05-09 04:17 34.84717 139.88123 14219 ft 329 kts 357°
2026-05-09 04:17 34.86997 139.88451 13778 ft 330 kts 358°
2026-05-09 04:18 34.89276 139.88779 13340 ft 330 kts 358°
2026-05-09 04:18 34.91562 139.89105 12909 ft 331 kts 358°
2026-05-09 04:18 34.93845 139.89400 12471 ft 327 kts 354°
2026-05-09 04:18 34.96040 139.89106 12052 ft 312 kts 338°
2026-05-09 04:19 34.98140 139.88436 11639 ft 311 kts 338°
2026-05-09 04:19 35.00226 139.87776 11233 ft 309 kts 339°
2026-05-09 04:19 35.02299 139.87119 10834 ft 307 kts 339°
2026-05-09 04:19 35.04360 139.86471 10429 ft 306 kts 340°
2026-05-09 04:20 35.06412 139.85827 10025 ft 304 kts 340°
2026-05-09 04:20 35.08458 139.85179 9618 ft 302 kts 341°
2026-05-09 04:20 35.10485 139.84540 9237 ft 300 kts 341°
2026-05-09 04:20 35.12486 139.83912 8832 ft 299 kts 342°
2026-05-09 04:21 35.14508 139.83276 8441 ft 297 kts 342°
2026-05-09 04:21 35.16490 139.82648 8049 ft 289 kts 343°
2026-05-09 04:21 35.20246 139.81456 7325 ft 269 kts 343°
2026-05-09 04:22 35.22004 139.80899 6975 ft 252 kts 343°
2026-05-09 04:22 35.23643 139.80382 6654 ft 235 kts 343°
2026-05-09 04:22 35.25190 139.79890 6391 ft 227 kts 343°
2026-05-09 04:22 35.26699 139.79408 6076 ft 223 kts 343°
2026-05-09 04:23 35.28184 139.78933 5763 ft 218 kts 343°
2026-05-09 04:23 35.29641 139.78467 5471 ft 214 kts 345°
2026-05-09 04:23 35.31109 139.78338 5197 ft 212 kts
2026-05-09 04:23 35.32524 139.78801 4918 ft 211 kts 21°
2026-05-09 04:24 35.33758 139.79768 4628 ft 211 kts 32°
2026-05-09 04:24 35.34927 139.80834 4347 ft 209 kts 32°
2026-05-09 04:24 35.36079 139.81876 4088 ft 201 kts 32°
2026-05-09 04:24 35.37173 139.82862 3816 ft 191 kts 32°
2026-05-09 04:25 35.38219 139.83807 3553 ft 182 kts 32°
2026-05-09 04:25 35.39216 139.84709 3323 ft 175 kts 32°
2026-05-09 04:25 35.40177 139.85576 3105 ft 168 kts 32°
2026-05-09 04:25 35.41132 139.86362 2887 ft 161 kts 23°
2026-05-09 04:26 35.42157 139.86799 2675 ft 153 kts
2026-05-09 04:26 35.43199 139.86891 2470 ft 149 kts 358°
2026-05-09 04:26 35.44231 139.86887 2264 ft 148 kts 357°
2026-05-09 04:26 35.45212 139.86570 2133 ft 146 kts 336°
2026-05-09 04:27 35.46132 139.86043 2126 ft 146 kts 334°
2026-05-09 04:27 35.47031 139.85504 1962 ft 142 kts 334°
2026-05-09 04:27 35.47865 139.84913 1697 ft 136 kts 329°
2026-05-09 04:27 35.48654 139.84283 1459 ft 134 kts 329°
2026-05-09 04:28 35.49443 139.83683 1205 ft 133 kts 331°
2026-05-09 04:28 35.50242 139.83120 987 ft 132 kts 333°
2026-05-09 04:28 35.51037 139.82559 846 ft 132 kts 331°
2026-05-09 04:28 35.51830 139.81982 698 ft 133 kts 331°
2026-05-09 04:29 35.52648 139.81456 482 ft 133 kts 333°
2026-05-09 04:29 35.53449 139.80888 299 ft 134 kts 331°
2026-05-09 04:29 35.54255 139.80309 78 ft 134 kts 330°
2026-05-09 04:29 35.55018 139.79778 29 ft 109 kts 330°
2026-05-09 04:30 35.55501 139.79428 27 ft 53 kts 329°
2026-05-09 04:30 35.55730 139.79216 26 ft 34 kts 308°
2026-05-09 04:30 35.55773 139.79030 25 ft 20 kts 229°
2026-05-09 04:30 35.55700 139.79040 26 ft 13 kts 151°
2026-05-09 04:31 35.55573 139.79123 26 ft 23 kts 152°
2026-05-09 04:31 35.55439 139.79219 26 ft 22 kts 149°
2026-05-09 04:31 35.55312 139.79309 27 ft 20 kts 150°
2026-05-09 04:31 35.55193 139.79393 27 ft 19 kts 149°
2026-05-09 04:32 35.55081 139.79474 28 ft 18 kts 149°
2026-05-09 04:32 35.54975 139.79551 27 ft 18 kts 148°
2026-05-09 04:32 35.54868 139.79625 27 ft 17 kts 153°
2026-05-09 04:32 35.54776 139.79588 25 ft 15 kts 235°
2026-05-09 04:33 35.54735 139.79496 27 ft 9 kts 244°
2026-05-09 04:33 35.54728 139.79434 27 ft 6 kts 283°
2026-05-09 04:33 35.54761 139.79385 28 ft 10 kts 325°
2026-05-09 04:33 35.54820 139.79341 28 ft 5 kts 330°
2026-05-09 04:34 35.54835 139.79331 28 ft 0 kts 330°
2026-05-09 04:34 35.54836 139.79329 28 ft 0 kts 330°